Weather History for Morgantown, WV

Change the Weather History Date:

Saturday, January 19, 2002

  Actual Average Record
Temperature  
Mean Temperature 29 °F 31 °F  
Max Temperature 32 °F 39 °F 69 °F (1996)
Min Temperature 26 °F 24 °F -19 °F (1994)
Degree Days  
Heating Degree Days 36 34  
Month to date heating degree days 643  
Since 1 July heating degree days 2627  
Cooling Degree Days 0 0  
Month to date cooling degree days 0  
Year to date cooling degree days 0  
Moisture  
Dew Point 26 °F    
Average Humidity 89    
Maximum Humidity 100    
Minimum Humidity 64    
Precipitation  
Precipitation 0.08 in 0.09 in 1.06 in (1988)
Month to date precipitation 1.71  
Year to date precipitation 1.71  
Sea Level Pressure  
Sea Level Pressure 29.94 in    
Wind  
Wind Speed 2 mph (NNE)    
Max Wind Speed 9 mph    
Max Gust Speed -    
Visibility 4 miles    
Events Fog , Snow    
T = Trace of Precipitation, MM = Missing Value Source: NWS Daily Summary

Daily Weather History Graph

Daily Weather History Graph

Search for Another Location

Airport:

Trip Planner

Search our weather history database for the weather conditions in past years. The results will help you decide how hot, cold, wet, or windy it might be!

Date:

Astronomy

Jan. 19, 2002 Rise Set
Actual Time 7:36 AM EST 5:24 PM EST
Civil Twilight 7:07 AM EST 5:53 PM EST
Nautical Twilight 6:34 AM EST 6:26 PM EST
Astronomical Twilight 6:02 AM EST 6:58 PM EST
Moon 11:03 AM EST (1/19) 11:17 PM EST (1/19)
Length of Visible Light 10h 45m
Length of Day
9h 47m
Waxing Crescent, 31% of the Moon is Illuminated
Jan 19
Waxing Crescent
Jan 21
First Quarter
Jan 28
Full
Feb 4
Last Quarter
Feb 12
New

Hourly Weather History & Observations

Time (EST) Temp. Windchill Dew Point Humidity Pressure Visibility Wind Dir Wind Speed Gust Speed Precip Events Conditions
12:53 AM 28.0 °F - 19.0 °F 69% 30.19 in 10.0 mi Calm Calm - N/A   Clear
1:53 AM 28.0 °F 24.2 °F 19.0 °F 69% 30.17 in 10.0 mi South 3.5 mph - N/A   Clear
2:53 AM 28.9 °F 23.9 °F 21.0 °F 72% 30.15 in 10.0 mi South 4.6 mph - N/A   Partly Cloudy
3:53 AM 28.9 °F - 19.9 °F 69% 30.15 in 10.0 mi Calm Calm - N/A   Overcast
4:53 AM 30.9 °F - 19.9 °F 64% 30.13 in 10.0 mi Calm Calm - N/A   Overcast
5:53 AM 30.0 °F - 21.0 °F 69% 30.11 in 10.0 mi Calm Calm - N/A   Overcast
6:53 AM 30.0 °F 25.2 °F 21.0 °F 69% 30.09 in 10.0 mi North 4.6 mph - N/A   Overcast
7:21 AM 30.2 °F - 21.2 °F 69% 30.05 in 8.0 mi Calm Calm - 0.00 in Snow Light Snow
7:44 AM 30.2 °F 24.3 °F 24.8 °F 80% 30.06 in 1.0 mi SSE 5.8 mph - 0.00 in Snow Light Snow
7:53 AM 28.9 °F 22.8 °F 26.1 °F 89% 30.09 in 0.5 mi SE 5.8 mph - 0.00 in Fog , Snow Light Snow
8:17 AM 28.4 °F - 26.6 °F 93% 30.06 in 0.5 mi Calm Calm - 0.00 in Fog , Snow Light Snow
8:53 AM 28.0 °F - 27.0 °F 96% 30.07 in 0.8 mi Calm Calm - 0.00 in Snow Light Snow
9:00 AM 28.4 °F 24.6 °F 26.6 °F 93% 30.01 in 1.0 mi ENE 3.5 mph - 0.00 in Snow Light Snow
9:09 AM 28.4 °F - 26.6 °F 93% 30.01 in 0.8 mi Calm Calm - 0.00 in Snow Light Snow
9:20 AM 28.4 °F - 26.6 °F 93% 30.01 in 1.0 mi Calm Calm - 0.00 in Snow Light Snow
9:53 AM 28.9 °F 25.2 °F 28.0 °F 96% 30.06 in 0.5 mi North 3.5 mph - 0.00 in Fog , Snow Light Snow
10:27 AM 28.4 °F 24.6 °F 28.4 °F 100% 29.98 in 0.5 mi ENE 3.5 mph - 0.00 in Fog , Snow Snow
10:34 AM 28.4 °F 24.6 °F 28.4 °F 100% 29.97 in 0.5 mi East 3.5 mph - 0.00 in Fog , Snow Light Snow
10:53 AM 28.9 °F 23.9 °F 28.0 °F 96% 29.99 in 0.8 mi East 4.6 mph - 0.00 in Snow Light Snow
11:13 AM 30.2 °F - 28.4 °F 93% 29.92 in 1.2 mi Calm Calm - 0.00 in Snow Light Snow
11:21 AM 30.2 °F - 28.4 °F 93% 29.91 in 2.0 mi Calm Calm - 0.00 in Snow Light Snow
11:30 AM 30.2 °F - 28.4 °F 93% 29.90 in 5.0 mi Calm Calm - 0.00 in   Overcast
11:53 AM 30.9 °F 26.2 °F 28.0 °F 89% 29.91 in 10.0 mi East 4.6 mph - 0.00 in   Overcast
12:53 PM 32.0 °F 26.4 °F 27.0 °F 82% 29.83 in 10.0 mi ENE 5.8 mph - 0.03 in   Overcast
1:53 PM 32.0 °F 27.5 °F 28.0 °F 85% 29.78 in 10.0 mi North 4.6 mph - 0.04 in   Overcast
3:53 PM 30.9 °F 26.2 °F 28.9 °F 92% 29.80 in 3.0 mi North 4.6 mph - 0.01 in Snow Light Snow
4:28 PM 30.2 °F 26.7 °F 28.4 °F 93% 29.78 in 3.0 mi Variable 3.5 mph - 0.00 in Snow Light Snow
4:44 PM 30.2 °F 25.4 °F 28.4 °F 93% 29.78 in 1.5 mi North 4.6 mph - 0.00 in Snow Light Snow
4:53 PM 30.0 °F 25.2 °F 28.9 °F 96% 29.80 in 1.0 mi North 4.6 mph - 0.00 in Snow Light Snow
5:01 PM 30.2 °F 25.4 °F 28.4 °F 93% 29.76 in 0.5 mi North 4.6 mph - 0.00 in Snow Light Snow
5:28 PM 30.2 °F 23.4 °F 28.4 °F 93% 29.74 in 1.0 mi North 6.9 mph - 0.00 in Snow Light Snow
5:41 PM 30.2 °F - 28.4 °F 93% 29.76 in 2.0 mi Calm Calm - 0.00 in Snow Light Snow
5:53 PM 30.0 °F - 28.9 °F 96% 29.83 in 3.0 mi Calm Calm - 0.00 in Snow Light Snow
6:29 PM 30.2 °F - 28.4 °F 93% 29.80 in 3.0 mi Calm Calm - 0.00 in Snow Light Snow
6:39 PM 30.2 °F - 28.4 °F 93% 29.81 in 2.0 mi Calm Calm - 0.00 in Snow Light Snow
6:53 PM 30.0 °F 25.2 °F 28.0 °F 92% 29.82 in 1.8 mi NNW 4.6 mph - 0.00 in Snow Light Snow
7:25 PM 28.4 °F 22.2 °F 28.4 °F 100% 29.80 in 1.2 mi Variable 5.8 mph - 0.00 in Snow Light Snow
7:53 PM 28.9 °F 22.8 °F 28.0 °F 96% 29.85 in 0.5 mi North 5.8 mph - 0.00 in Snow Light Snow
8:09 PM 28.4 °F 23.3 °F 28.4 °F 100% 29.84 in 2.0 mi Variable 4.6 mph - 0.00 in Snow Light Snow
8:33 PM 28.4 °F - 28.4 °F 100% 29.85 in 5.0 mi Calm Calm - 0.00 in Snow Light Snow
8:53 PM 28.9 °F 25.2 °F 27.0 °F 92% 29.90 in 7.0 mi Variable 3.5 mph - 0.00 in Snow Light Snow
9:53 PM 28.0 °F 21.7 °F 26.1 °F 92% 29.94 in 6.0 mi NW 5.8 mph - 0.00 in   Overcast
10:53 PM 28.0 °F 19.3 °F 25.0 °F 88% 29.97 in 6.0 mi NW 9.2 mph - N/A   Overcast
11:13 PM 26.6 °F 21.2 °F 24.8 °F 93% 29.94 in 10.0 mi Variable 4.6 mph - N/A   Overcast
11:53 PM 28.0 °F 24.2 °F 24.1 °F 85% 29.99 in 10.0 mi WNW 3.5 mph - N/A   Overcast